This is the latest recevied weather packets stored in our database for station/object KM7BEO. If no packets are shown the sender has not sent any weather packets the latest 10 day(s).
| Time | Temp. | Humidity | Pressure | Rain* | Wind** | Luminosity | Snow |
|---|---|---|---|---|---|---|---|
| 1788146612 | 60° F | 81% | 763.4 mmHg | 0 in | - | 0 W/m² | - |
| 1788146307 | 60° F | 81% | 763.5 mmHg | 0 in | - | 0 W/m² | - |
| 1788146007 | 60° F | 80% | 763.3 mmHg | 0 in | - | 0 W/m² | - |
| 1788145702 | 60° F | 80% | 763.4 mmHg | 0 in | - | 0 W/m² | - |
| 1788145400 | 60° F | 79% | 763.2 mmHg | 0 in | - | 1 W/m² | - |
| 1788145100 | 61° F | 79% | 763.2 mmHg | 0 in | - | 2 W/m² | - |
| 1788144800 | 61° F | 78% | 763.2 mmHg | 0 in | - | 3 W/m² | - |
| 1788144495 | 61° F | 77% | 763.2 mmHg | 0 in | - | 4 W/m² | - |
| 1788144195 | 61° F | 76% | 763.3 mmHg | 0 in | - | 5 W/m² | - |
| 1788143894 | 62° F | 76% | 763.3 mmHg | 0 in | - | 7 W/m² | - |
| 1788143592 | 62° F | 75% | 763.4 mmHg | 0 in | - | 9 W/m² | - |
| 1788143288 | 62° F | 74% | 763.3 mmHg | 0 in | - | 13 W/m² | - |
| 1788142986 | 62° F | 74% | 763.5 mmHg | 0 in | - | 15 W/m² | - |
| 1788142682 | 62° F | 74% | 763.5 mmHg | 0 in | - | 20 W/m² | - |
| 1788142382 | 62° F | 73% | 763.6 mmHg | 0 in | - | 24 W/m² | - |
| 1788142078 | 63° F | 73% | 763.5 mmHg | 0 in | - | 27 W/m² | - |
| 1788141777 | 63° F | 72% | 763.7 mmHg | 0 in | - | 30 W/m² | - |
| 1788141473 | 63° F | 71% | 763.6 mmHg | 0 in | - | 33 W/m² | - |
| 1788141169 | 63° F | 71% | 763.5 mmHg | 0 in | - | 37 W/m² | - |
| 1788140868 | 64° F | 69% | 763.6 mmHg | 0 in | - | 39 W/m² | - |
| 1788140568 | 64° F | 68% | 763.6 mmHg | 0 in | - | 40 W/m² | - |
| 1788140265 | 64° F | 65% | 763.6 mmHg | 0 in | - | 34 W/m² | - |
| 1788139964 | 64° F | 64% | 763.7 mmHg | 0 in | - | 37 W/m² | - |
| 1788139659 | 64° F | 65% | 763.6 mmHg | 0 in | - | 41 W/m² | - |
| 1788139355 | 64° F | 64% | 763.6 mmHg | 0 in | - | 47 W/m² | - |
* Rain latest hour (hover to see other rain measurements)
** Current wind speed in m/s (hover to see current wind gust speed)